Location: Rostock
(54.0884°N, 12.1234°E)
Time: 11:53:42
(UTC+02:00)

ISS - Visible Passes

Search period start: 20 May 2018 00:00
Search period end: 30 May 2018 00:00
Orbit: 402 x 407 km, 51.6° (Epoch: 20 May)

Date Brightness Start Highest point End Pass type
(mag) Time Alt. Az. Time Alt. Az. Time Alt. Az.
20 May -2.3 00:06:25 21° ESE 00:06:25 21° ESE 00:07:56 10° E visible
20 May -3.8 01:38:57 18° WSW 01:41:11 55° S 01:44:24 10° E visible
20 May -3.4 03:14:20 10° W 03:17:26 40° SSW 03:20:32 10° SE visible
20 May -2.6 23:10:23 10° SSW 23:12:59 22° SSE 23:15:37 10° E visible
21 May -3.7 00:45:53 10° WSW 00:49:04 50° S 00:52:15 10° E visible
21 May -3.7 02:22:09 10° W 02:25:20 49° S 02:28:30 10° ESE visible
21 May -2.5 03:58:51 10° W 04:01:23 21° SSW 04:03:54 10° SSE visible
21 May -2.2 22:18:58 10° S 22:21:01 16° SE 22:23:05 10° ESE visible
21 May -3.5 23:53:50 10° WSW 23:56:57 42° SSE 00:00:04 10° E visible
22 May -3.8 01:29:59 10° W 01:33:12 55° S 01:36:25 10° ESE visible
22 May -3.0 03:06:29 10° W 03:09:21 28° SSW 03:12:13 10° SE visible
22 May -3.2 23:01:51 10° SW 23:04:50 33° SSE 23:07:50 10° E visible
23 May -3.8 00:37:50 10° WSW 00:41:02 56° S 00:44:15 10° E visible
23 May -3.4 02:14:12 10° W 02:17:16 37° SSW 02:20:19 10° SE visible
23 May -1.9 03:51:35 10° WSW 03:53:06 13° SW 03:54:37 10° S visible
23 May -2.7 22:10:02 10° SSW 22:12:46 25° SSE 22:15:31 10° E visible
23 May -3.8 23:45:40 10° WSW 23:48:52 52° S 23:52:04 10° E visible
24 May -3.6 01:21:59 10° W 01:25:08 46° SSW 01:27:49 13° ESE visible
24 May -2.1 02:58:46 10° WSW 03:00:12 17° SW 03:00:12 17° SW visible
24 May -3.5 22:53:33 10° WSW 22:56:43 45° SSE 22:59:51 10° E visible
25 May -3.8 00:29:46 10° W 00:32:58 53° S 00:35:35 14° ESE visible
25 May -2.4 02:06:18 10° W 02:08:09 22° SW 02:08:09 22° SW visible
25 May -3.8 23:37:33 10° W 23:40:46 56° S 23:43:59 10° ESE visible
26 May -3.2 01:13:58 10° W 01:16:58 34° SSW 01:17:03 34° SSW visible
26 May -3.7 22:45:21 10° WSW 22:48:34 54° S 22:51:47 10° E visible
27 May -3.5 00:21:41 10° W 00:24:50 43° SSW 00:26:10 27° SE visible
27 May -1.4 01:58:37 10° WSW 01:58:47 11° WSW 01:58:47 11° WSW visible
27 May -3.7 23:29:26 10° W 23:32:38 51° S 23:35:23 13° ESE visible
28 May -2.3 01:06:03 10° W 01:08:00 21° SW 01:08:00 21° SW visible
28 May -3.7 22:37:11 10° W 22:40:24 55° S 22:43:36 10° ESE visible
29 May -3.0 00:13:38 10° W 00:16:34 31° SSW 00:17:18 27° S visible
29 May -3.3 23:21:17 10° W 23:24:23 40° SSW 23:26:37 16° SE visible
